EW0493 Weather Reports


Display with metric or nautical units.
time (UTC)temp
F
wind
direction
speed
MPH
gust
MPH
rain 1hr
in
rain 24hr
in
rain mn
in
humidity
%
barometer
mb
20220518223030 59 170 0.0 1.0 0.00 0.00 0.00 59 1012.2
20220518221555 59 194 0.0 2.0 0.00 0.00 0.00 55 1012.7
20220518220137 61 280 0.0 5.0 0.00 0.00 0.00 52 1013.0
20220518214615 61 252 0.0 3.0 0.00 0.00 0.00 50 1012.9
20220518211535 62 226 0.0 4.0 0.00 0.00 0.00 46 1013.4
20220518210055 63 253 1.0 6.0 0.00 0.00 0.00 44 1013.5
20220518204635 64 288 0.0 3.0 0.00 0.00 0.00 45 1013.4
20220518203029 64 158 0.0 5.0 0.00 0.00 0.00 48 1013.4
20220518201554 63 242 0.0 5.0 0.00 0.00 0.00 46 1013.6
20220518200013 63 349 0.0 7.0 0.00 0.00 0.00 48 1013.5
20220518194608 63 245 0.0 5.0 0.00 0.00 0.00 49 1013.7
20220518193033 63 327 2.0 9.0 0.00 0.00 0.00 46 1013.6
20220518191611 63 239 0.0 4.0 0.00 0.00 0.00 50 1013.7
20220518190026 64 37 0.0 3.0 0.00 0.00 0.00 50 1013.7
20220518184616 63 290 0.0 3.0 0.00 0.00 0.00 49 1013.8
20220518183029 62 252 0.0 7.0 0.00 0.00 0.00 49 1014.0
20220518181601 62 360 0.0 5.0 0.00 0.00 0.00 53 1014.0
20220518180140 62 236 0.0 7.0 0.00 0.00 0.00 53 1014.1
20220518174545 63 228 0.0 5.0 0.00 0.00 0.00 47 1014.3
20220518173112 63 242 2.0 5.0 0.00 0.00 0.00 48 1014.5
20220518171652 64 246 3.0 8.0 0.00 0.00 0.00 48 1014.5
20220518170011 62 261 0.0 7.0 0.00 0.00 0.00 53 1014.7
20220518164551 62 257 1.0 7.0 0.00 0.00 0.00 51 1014.9
20220518163029 62 269 0.0 3.0 0.00 0.00 0.00 51 1014.8
20220518161603 61 249 1.0 6.0 0.00 0.00 0.00 53 1014.9
20220518160035 60 293 0.0 5.0 0.00 0.00 0.00 55 1015.0
20220518154624 60 277 0.0 3.0 0.00 0.00 0.00 58 1015.3
20220518153031 58 93 0.0 2.0 0.00 0.00 0.00 61 1015.4
20220518151619 57 193 0.0 6.0 0.00 0.00 0.00 61 1015.7
20220518150010 56 257 1.0 5.0 0.00 0.00 0.00 65 1016.1
20220518144603 56 309 0.0 7.0 0.00 0.00 0.00 63 1016.4
20220518143037 56 58 0.0 3.0 0.00 0.00 0.00 63 1016.5
20220518141509 55 260 0.0 3.0 0.00 0.00 0.00 66 1016.5
20220518140057 54 264 0.0 7.0 0.00 0.00 0.00 71 1016.3
20220518134551 53 13 0.0 7.0 0.00 0.00 0.00 70 1016.4
20220518133115 53 297 0.0 6.0 0.00 0.00 0.00 71 1016.3
20220518131649 52 221 0.0 5.0 0.00 0.00 0.00 73 1016.3
20220518130153 51 267 1.0 10.0 0.00 0.00 0.00 74 1016.2
20220518124533 50 113 0.0 6.0 0.00 0.00 0.00 77 1016.1
20220518123101 50 199 0.0 3.0 0.00 0.00 0.00 78 1016.0
20220518121536 49 280 0.0 7.0 0.00 0.00 0.00 78 1016.0
20220518120102 49 292 0.0 5.0 0.00 0.00 0.00 79 1016.0
20220518114529 48 264 0.0 5.0 0.00 0.00 0.00 81 1015.6
20220518113109 47 236 0.0 2.0 0.00 0.00 0.00 84 1015.3
20220518111650 46 283 0.0 2.0 0.00 0.00 0.00 87 1015.2
20220518110034 45 264 0.0 1.0 0.00 0.00 0.00 88 1015.3
20220518104546 44 248 0.0 0.0 0.00 0.00 0.00 89 1015.2
20220518103105 43 219 0.0 0.0 0.00 0.00 0.00 91 1015.1
20220518101520 0 0.0 0.0 0.00 0.00 0.00 1014.9
20220518100103 41 273 0.0 0.0 0.00 0.00 0.00 91 1014.7
20220518094507 42 273 0.0 0.0 0.00 0.00 0.00 90 1014.6
20220518093101 42 272 0.0 0.0 0.00 0.00 0.00 90 1014.5
20220518091637 43 273 0.0 0.0 0.00 0.00 0.00 89 1014.5
20220518090002 43 273 0.0 0.0 0.00 0.00 0.00 88 1014.4
20220518084548 44 272 0.0 0.0 0.00 0.00 0.00 87 1014.3
20220518083136 44 272 0.0 0.0 0.00 0.00 0.00 86 1014.4
20220518081644 44 273 0.0 0.0 0.00 0.00 0.00 86 1014.5
20220518080143 45 273 0.0 0.0 0.00 0.00 0.00 85 1014.3
20220518074526 45 272 0.0 0.0 0.00 0.00 0.00 83 1014.2
20220518073109 46 273 0.0 1.0 0.00 0.00 0.00 83 1014.1
20220518071516 46 73 0.0 0.0 0.00 0.00 0.00 81 1013.8
20220518070103 47 242 0.0 0.0 0.00 0.00 0.00 80 1013.7
20220518064531 48 256 0.0 3.0 0.00 0.00 0.00 79 1013.7
20220518063109 48 231 0.0 1.0 0.00 0.00 0.00 78 1013.6
20220518061515 48 260 0.0 1.0 0.00 0.00 0.00 77 1013.5
20220518060130 48 248 0.0 1.0 0.00 0.00 0.00 77 1013.4
20220518054518 49 260 0.0 2.0 0.00 0.00 0.00 76 1013.3
20220518053102 49 260 0.0 1.0 0.00 0.00 0.00 74 1013.3
20220518051514 50 240 0.0 3.0 0.00 0.00 0.00 73 1013.3
20220518050104 50 255 0.0 5.0 0.00 0.00 0.00 72 1013.3
20220518044634 50 240 0.0 1.0 0.00 0.00 0.00 71 1013.5
20220518043052 51 225 0.0 5.0 0.00 0.00 0.00 71 1013.4
20220518041636 51 221 0.0 0.0 0.00 0.00 0.00 70 1013.3
20220518040057 51 257 0.0 2.0 0.00 0.00 0.00 69 1013.1
20220518034634 51 119 0.0 1.0 0.00 0.00 0.00 68 1013.0
20220518033017 52 86 0.0 1.0 0.00 0.00 0.00 67 1012.9
20220518031606 52 327 0.0 1.0 0.00 0.00 0.00 65 1012.9
20220518030014 52 236 0.0 5.0 0.00 0.00 0.00 65 1013.0
20220518024605 53 250 0.0 2.0 0.00 0.00 0.00 63 1012.9
20220518023015 53 113 0.0 5.0 0.00 0.00 0.00 62 1012.7
20220518021603 53 252 0.0 2.0 0.00 0.00 0.00 63 1012.6
20220518020007 54 177 0.0 2.0 0.00 0.00 0.00 62 1012.4
20220518014539 54 284 0.0 8.0 0.00 0.00 0.00 61 1012.4
20220518013057 55 265 0.0 1.0 0.00 0.00 0.00 61 1012.2
20220518011510 55 212 0.0 1.0 0.00 0.00 0.00 61 1012.0
20220518010105 56 243 0.0 1.0 0.00 0.00 0.00 59 1011.8
20220518004544 57 116 0.0 2.0 0.00 0.01 0.00 58 1011.4
20220518003106 58 133 0.0 1.0 0.00 0.01 0.00 55 1011.1
20220518001643 59 89 0.0 4.0 0.00 0.01 0.00 53 1010.6
20220518000153 60 278 0.0 2.0 0.00 0.01 0.00 51 1010.6
20220517234545 62 236 0.0 1.0 0.00 0.01 0.00 49 1010.1
20220517233121 63 273 0.0 5.0 0.00 0.01 0.00 45 1009.7
20220517231525 65 46 0.0 12.0 0.00 0.01 0.00 44 1009.4
20220517230106 66 235 0.0 6.0 0.00 0.01 0.00 41 1009.2
20220517224521 66 264 0.0 7.0 0.00 0.01 0.00 38 1009.0